Regional Weather Roundup
Issued by NWS

Home | Current Version | Previous Version | Graphics & Text | Print | Product List | Glossary On
Versions: 1 2 3 4 5 6 7 8 9 10 11 12 13 14 15 16 17 18 19 20 21 22 23 24 25 26 27 28 29 30 31 32 33 34 35 36 37 38 39 40 41 42 43 44 45 46 47 48 49 50
000
ASUS43 KTOP 261208
RWRKS

WEATHER ROUNDUP FOR KANSAS
NATIONAL WEATHER SERVICE GOODLAND KS
600 AM CST MON JAN 26 2015

NOTE:  "FAIR" INDICATES FEW OR NO CLOUDS BELOW 12,000 FEET WITH NO
SIGNIFICANT WEATHER AND/OR OBSTRUCTIONS TO VISIBILITY.

KSZ001>006-013>018-027>032-041>047-261300-
NORTHWEST KANSAS

CITY           SKY/WX    TMP DP  RH WIND       PRES   REMARKS
GOODLAND       CLEAR     40  30  67 NW18      30.11R WCI  31
6HR MIN TEMP:  37; 6HR MAX TEMP:  41;

HAYS           CLEAR     34  21  60 W8        30.03S
HILL CITY      CLEAR     42  31  64 W10       30.03R
6HR MIN TEMP:  32; 6HR MAX TEMP:  42;

RUSSELL        CLEAR     31  26  82 SW10      29.99F WCI  22
6HR MIN TEMP:  28; 6HR MAX TEMP:  32;

$$

KSZ061>065-074>080-084>089-261300-
SOUTHWEST KANSAS

CITY           SKY/WX    TMP DP  RH WIND       PRES   REMARKS
DODGE CITY     CLEAR     39  28  64 W18       30.09S WCI  30
6HR MIN TEMP:  30; 6HR MAX TEMP:  40;

ELKHART          N/A    N/A N/A N/A MISG        N/A
GARDEN CITY    CLEAR     36  29  75 W12       30.11S WCI  28
6HR MIN TEMP:  32; 6HR MAX TEMP:  38;

GREAT BEND     CLEAR     36  27  69 W13       30.03F WCI  27
LIBERAL        CLEAR     37  27  65 W12       30.15F WCI  30
PRATT          CLEAR     34  27  75 W10       30.05F WCI  26
$$

KSZ066>073-081>083-090>101-261300-
SOUTHEAST KANSAS

CITY           SKY/WX    TMP DP  RH WIND       PRES   REMARKS
CHANUTE        CLEAR     22  21  96 S5        30.09F
6HR MIN TEMP:  21; 6HR MAX TEMP:  31;

COFFEYVILLE    CLEAR     24  22  91 SW3       30.12F
6HR MIN TEMP:  24; 6HR MAX TEMP:  32;

HUTCHINSON     CLEAR     33  27  78 S7        30.05F
6HR MIN TEMP:  22; 6HR MAX TEMP:  33;

MEDICINE LODGE   N/A     25  21  85 CALM      30.07F
NEWTON         CLEAR     28  23  80 SW12      30.05F WCI  18
PARSONS        CLEAR     22  20  92 CALM      30.12F
6HR MIN TEMP:  21; 6HR MAX TEMP:  29;

WICHITA INTL   CLEAR     27  23  85 S6        30.07F
6HR MIN TEMP:  25; 6HR MAX TEMP:  30;

WICHITA JABRA  FAIR      33  28  81 SW9       30.07F
6HR MIN TEMP:  26; 6HR MAX TEMP:  33;

WICHITA MCCONL CLEAR     29  25  88 SW6       30.07F
WINFIELD       CLEAR     28  25  88 S3        30.11F
6HR MIN TEMP:  24; 6HR MAX TEMP:  29;

$$

KSZ007>012-019>026-033>040-048>060-102>105-261300-
NORTHEAST KANSAS

CITY           SKY/WX    TMP DP  RH WIND       PRES   REMARKS
CONCORDIA      CLEAR     34  28  79 SW13      29.96F WCI  25
6HR MIN TEMP:  30; 6HR MAX TEMP:  36;

EMPORIA        CLEAR     29  27  92 S9        30.03F
6HR MIN TEMP:  24; 6HR MAX TEMP:  30;

LAWRENCE       CLEAR     21  19  92 SE3       30.04F
6HR MIN TEMP:  18; 6HR MAX TEMP:  23;

MANHATTAN      CLEAR     29  27  92 SW7       30.01F
6HR MIN TEMP:  22; 6HR MAX TEMP:  30;

MARYSVILLE     CLEAR     32  30  93 SW9       29.95F
OLATHE IND     CLEAR     26  25  96 SW7       30.04F
6HR MIN TEMP:  23; 6HR MAX TEMP:  28;

OLATHE EXE     CLEAR     26  24  92 SW5       30.02F
6HR MIN TEMP:  24; 6HR MAX TEMP:  31;

SALINA         CLEAR     34  28  79 SW13      30.00F WCI  25
6HR MIN TEMP:  26; 6HR MAX TEMP:  34;

TOPEKA BILLARD CLEAR     23  22  96 CALM      30.03F FOG
6HR MIN TEMP:  23; 6HR MAX TEMP:  29;

TOPEKA FORBES  CLEAR     27  23  85 S6        30.02F
6HR MIN TEMP:  23; 6HR MAX TEMP:  29;

$$


USA.gov is the U.S. government's official web portal to all federal, state and local government web resources and services.